Flag for Turkmenistan Weather past 2 weeks in Ashgabat, Turkmenistan

Now
84 °F

Sunny.


Feels Like: 81 °F
Forecast: 68 / 98 °F
Wind: 3 mph from North

Location: Ashgabat

Current Time: Aug 1, 2014 at 10:54:05 AM

Latest Report: Aug 1, 2014 at 10:00 AM


Visibility: N/A

Pressure: 29.89 "Hg

Humidity: 15%

Dew point: 32 °F

Location of AshgabatLocation

Historic Weather in Ashgabat — Graph

°F

Ashgabat temperature yesterday

Maximum temperature yesterday: 93 °F (at 2:30 PM)
Minimum temperature yesterday: 66 °F (at 6:00 AM)
Average temperature yesterday: 83 °F

Past Weeks' High & Low Weather Summary

 TemperatureHumidityPressure
High108 °F (Jul 27, 5:00 PM)43% (Jul 20, 7:00 AM)29.95 "Hg (Jul 20, 7:00 AM)
Low64 °F (Aug 1, 6:00 AM)6% (Jul 26, 3:30 PM)29.50 "Hg (Jul 20, 2:00 AM)
Average89 °F18%29.73 "Hg
* Reported Jul 17 9:00 AM — Aug 1 9:00 AM, Ashgabat, Weather by CustomWeather, © 2014

Note: Actual official high and low records may vary slightly from our data, if they occured in-between our weather recording intervals... More about our weather records

Advertising

Ashgabat weather history for previous 24 hours

 ConditionsComfort  
Time TempWeatherWind HumidityBarometerVisibility
9:00 AM
Aug 1
79 °FSunny.3 mph24%29.89 "HgN/A
8:00 AM75 °FSunny.1 mph16%29.89 "HgN/A
7:00 AM70 °FClear.3 mph21%29.89 "HgN/A
6:00 AM64 °FClear.3 mph37%29.89 "HgN/A
5:00 AM68 °FClear.1 mph28%29.86 "HgN/A
4:00 AM70 °FClear.3 mph25%29.86 "Hg4 mi
3:00 AM72 °FClear.1 mph27%29.86 "Hg2 mi
2:00 AM73 °FClear.1 mph25%29.86 "Hg5 mi
1:00 AM75 °FClear.1 mph24%29.86 "Hg5 mi
12:00 AM77 °FClear.No wind21%29.86 "Hg2 mi
11:00 PM
Jul 31
79 °FClear.3 mph18%29.86 "Hg6 mi
10:00 PM81 °FClear.3 mph16%29.86 "HgN/A
9:00 PM82 °FSunny.8 mph15%29.86 "HgN/A
8:00 PM88 °FSunny.8 mph12%29.83 "HgN/A
7:00 PM91 °FSunny.10 mph10%29.83 "HgN/A
6:00 PM91 °FPassing clouds.10 mph10%29.86 "HgN/A
5:00 PM91 °FPassing clouds.15 mph10%29.86 "HgN/A
4:00 PM93 °FSunny.15 mph9%29.86 "HgN/A
3:00 PM93 °FSunny.13 mph9%29.86 "HgN/A
2:30 PM93 °FSunny.15 mph9%29.86 "HgN/A
2:00 PM91 °FSunny.15 mph10%29.89 "HgN/A
1:00 PM91 °FSunny.15 mph10%29.92 "HgN/A
12:00 PM90 °FSunny.17 mph11%29.92 "HgN/A
11:00 AM88 °FSunny.17 mph12%29.92 "HgN/A
10:00 AM86 °FSunny.15 mph13%29.92 "HgN/A
Weather by CustomWeather, © 2014

See weather overviewHow to use our weather pages